[[{"header":{"parameterUnit":"m.s-1","parameterCategory":1,"la1":30.2991,"la2":30.254,"lo1":-89.0895,"lo2":-89.0444,"dy":0.0017,"dx":0.0017,"nx":28,"ny":28,"refTime":"2025-01-01T03:00:00:Z","depth":0,"parameterNumber":2,"parameterNumberName":"U-component_of_WINDS"},"data":[0,0,0,0,0,0,0,0,0,0,0,0,0,0,0,0,0,0,0,0,0,0,0,0,0,0,0,0,0,0,0,0,0,0,0,0,0,0,0,0,0,0,0,0,0,0,0,0,0,0,0,0,0,0,0,0,0,0,-4.8576,-4.8576,0,-4.8596,-4.8596,-4.8597,-4.8464,-4.846,-4.8457,-4.8453,-4.8475,-4.8479,-4.8483,0,0,0,0,0,0,0,0,0,0,0,0,0,-4.8423,-4.8427,-4.8576,-4.8576,-4.8576,-4.8596,-4.8596,-4.8597,-4.8465,-4.846,-4.8456,-4.8451,-4.8473,-4.8478,-4.8483,0,0,0,0,0,0,0,0,0,0,0,0,0,-4.8471,-4.8428,-4.8576,-4.8513,-4.8508,-4.8596,-4.8596,-4.8597,-4.8466,-4.846,-4.8455,-4.8449,-4.8472,-4.8478,-4.8484,-4.8634,0,0,-4.8502,-4.8505,0,0,0,0,0,0,0,0,-4.8469,-4.8477,-4.8522,-4.8517,-4.8512,-4.8522,-4.855,-4.8609,-4.8467,-4.8482,-4.8453,-4.8447,-4.8495,-4.8499,-4.8515,-4.8635,-4.8636,-4.8503,-4.8507,-4.8509,-4.8511,0,0,0,0,0,0,0,-4.8465,-4.8475,-4.8584,-4.8523,-4.8516,-4.8484,-4.8484,-4.8561,-4.852,-4.848,-4.847,-4.8475,-4.8491,-4.8509,-4.8515,-4.8636,-4.8503,-4.8508,-4.8512,-4.8514,-4.8879,-4.8885,0,0,0,0,0,0,-4.847,-4.8473,-4.8583,-4.8584,-4.8476,-4.8491,-4.8492,-4.8524,-4.8518,-4.8512,-4.8479,-4.8468,-4.8502,-4.8508,-4.8515,-4.8689,-4.8509,-4.8515,-4.8518,-4.8873,-4.8881,-4.8887,0,0,0,0,0,0,-4.8468,-4.8481,-4.8582,-4.8526,-4.8537,-4.85,-4.8537,-4.8528,-4.8546,-4.8518,-4.851,-4.8506,-4.8498,-4.8506,-4.8605,-4.8688,-4.8518,-4.8523,-4.8866,-4.8875,-4.8884,-4.9041,0,0,0,0,0,0,-4.8464,-4.8481,-4.8538,-4.8529,-4.854,-4.8673,-4.8542,-4.8532,-4.8557,-4.8542,-4.8541,-4.8535,-4.8494,-4.8597,-4.8611,-4.8694,-4.8528,-4.8858,-4.887,-4.8881,-4.9028,-4.9054,-4.9077,0,0,0,0,0,-4.8459,-4.8582,-4.8542,-4.8556,-4.861,-4.8678,-4.8684,-4.8634,-4.8564,-4.862,-4.8602,-4.8535,-4.8677,-4.8608,-4.8623,-4.8709,-4.8853,-4.8867,-4.888,-4.9017,-4.9049,-4.9076,0,0,0,0,0,0,-4.8602,-4.8579,-4.8535,-4.8658,-4.8671,-4.8655,-4.8725,-4.867,-4.8703,-4.8689,-4.8625,-4.8626,-4.8736,-4.8732,-4.8655,-4.8853,-4.8753,-4.877,-4.8852,-4.8882,-4.8906,-4.8904,-4.8533,0,0,0,0,0,-4.8648,-4.8705,-4.8682,-4.8793,-4.8802,-4.8763,-4.879,-4.8751,-4.8762,-4.8766,-4.8755,-4.8769,-4.8816,-4.8849,-4.8891,-4.9027,-4.9024,-4.9093,-4.9118,-4.9138,-4.9153,-4.9225,-4.9255,-4.8932,-4.8932,-4.8931,0,0,-4.8744,-4.8738,-4.8778,-4.8822,-4.8827,-4.8887,-4.8768,-4.8837,-4.8881,-4.8777,-4.8869,-4.8862,-4.8872,-4.8991,-4.9042,-4.8991,-4.9242,-4.9155,-4.9171,-4.9176,-4.9242,-4.9272,-4.93,-4.8941,-4.8939,-4.8938,0,0,-4.8948,-4.895,-4.9043,-4.9051,-4.906,-4.9033,-4.9056,-4.9048,-4.9039,-4.9131,-4.9054,-4.9105,-4.9189,-4.9199,-4.9215,-4.9424,-4.9363,-4.944,-4.9566,-4.9637,-4.9662,-4.9684,-4.9758,-4.9786,-4.9455,-4.9456,-4.9456,0,-4.9066,-4.9154,-4.9098,-4.9171,-4.9193,-4.9101,-4.9194,-4.9204,-4.9227,-4.9244,-4.9186,-4.9289,-4.9289,-4.9408,-4.9459,-4.9476,-4.9499,-4.944,-4.9663,-4.9685,-4.9704,-4.9774,-4.9802,-4.9465,-4.9464,-4.9463,-4.9462,0,-4.9297,-4.9359,-4.9433,-4.9457,-4.9487,-4.957,-4.9527,-4.9563,-4.9521,-4.9501,-4.9595,-4.9593,-4.9632,-4.9658,-4.9618,-4.9771,-4.9739,-4.9674,-4.9571,-4.9745,-4.981,-4.9836,-4.9478,-4.9475,-4.9472,-4.947,0,0,-4.9593,-4.9585,-4.9613,-4.9623,-4.9626,-4.9673,-4.9752,-4.979,-4.9823,-4.9842,-4.9907,-4.9979,-4.9918,-4.9936,-4.9896,-4.9958,-5.0123,-4.9884,-4.9884,-4.9929,-5.0292,-5.0341,-5.0373,-5.0083,-5.0088,-5.0092,-5.0291,0,-4.9793,-4.9927,-4.9879,-5.0016,-5.0072,-4.9986,-5.0055,-5.0064,-5.0047,-5.0092,-5.0073,-5.0125,-5.0041,-5.0052,-5.0109,-5.0091,-5.0195,-5.0076,-5.0142,-5.0145,-5.0142,-5.0407,-5.0459,-5.0648,-5.0316,-5.032,-5.0323,0,-5.0044,-5.0072,-5.0216,-5.0209,-5.023,-5.0293,-5.0324,-5.0369,-5.0378,-5.0361,-5.0382,-5.0329,-5.0405,-5.0304,-5.0408,-5.0328,-5.0352,-5.0348,-5.0354,-5.0358,-5.0245,-5.0418,-5.0706,-5.0735,-5.0363,-5.0359,-5.0357,0,-5.0245,-5.0319,-5.0414,-5.0425,-5.042,-5.0466,-5.0466,-5.0469,-5.0495,-5.0523,-5.0539,-5.0576,-5.0596,-5.0625,-5.0583,-5.0512,-5.0694,-5.0588,-5.0682,-5.0683,-5.0724,-5.0722,-5.102,-5.0741,-5.074,-5.074,-5.0739,0,-5.0472,-5.0563,-5.0504,-5.0563,-5.0662,-5.0605,-5.0705,-5.0695,-5.0699,-5.0754,-5.0682,-5.0735,-5.0676,-5.0724,-5.0691,-5.0783,-5.0793,-5.0781,-5.0771,-5.0787,-5.0789,-5.0802,-5.0788,-5.0747,-5.0745,-5.0744,-5.0743,0,-5.0713,-5.0677,-5.0775,-5.0762,-5.0761,-5.0835,-5.0823,-5.0877,-5.0854,-5.0925,-5.0938,-5.0903,-5.0955,-5.0916,-5.0968,-5.0946,-5.1067,-5.1039,-5.1064,-5.1056,-5.1152,-5.1143,-5.1469,-5.1508,-5.1204,-5.1207,-5.121,0,-5.0861,-5.0928,-5.0923,-5.0954,-5.0959,-5.1011,-5.1037,-5.0984,-5.1014,-5.1029,-5.1081,-5.1127,-5.1161,-5.1249,-5.1228,-5.1267,-5.124,-5.1351,-5.1245,-5.1259,-5.1241,-5.1237,-5.1243,-5.1372,-5.1376,-5.1379,-5.1381,0,-5.1126,-5.1105,-5.1145,-5.118,-5.1213,-5.1238,-5.1257,-5.1287,-5.1233,-5.1271,-5.1324,-5.135,-5.1403,-5.1449,-5.1481,-5.1481,-5.1423,-5.1415,-5.1438,-5.1455,-5.1467,-5.1461,-5.1122,-5.1408,-5.1405,-5.1403,-5.1402,-5.14,-5.1324,-5.138,-5.1385,-5.1432,-5.1441,-5.146,-5.151,-5.1493,-5.1536,-5.1575,-5.1541,-5.1604,-5.1611,-5.1647,-5.1654,-5.1703,-5.1657,-5.1691,-5.17,-5.1709,-5.1722,-5.146,-5.1708,-5.1708,-5.1707,-5.1706,-5.1706,0,-5.1585,-5.1584,-5.1628,-5.1657,-5.1694,-5.1636,-5.1654,-5.1689,-5.1745,-5.1756,-5.1791,-5.1851,-5.1896,-5.1879,-5.1919,-5.1961,-5.1935,-5.1973,-5.1969,-5.197,-5.1761,-5.1737,-5.1993,-5.1993,-5.1993,-5.1993,-5.1993,-5.1993,-5.1726,-5.1817,-5.1796,-5.1891,-5.1889,-5.195,-5.1965,-5.1982,-5.1991,-5.2061,-5.2098,-5.2086,-5.2086,-5.2125,-5.2164,-5.2157,-5.2175,-5.2223,-5.2207,-5.2013,-5.1984,-5.1957,-5.1934,-5.2227,-5.2228,-5.2411,-5.2413,-5.2414]},{"header":{"parameterUnit":"m.s-1","parameterCategory":1,"la1":30.2991,"la2":30.254,"lo1":-89.0895,"lo2":-89.0444,"dy":0.0017,"dx":0.0017,"nx":28,"ny":28,"refTime":"2025-01-01T03:00:00:Z","depth":0,"parameterNumber":3,"parameterNumberName":"V-component_of_WINDS"},"data":[0,0,0,0,0,0,0,0,0,0,0,0,0,0,0,0,0,0,0,0,0,0,0,0,0,0,0,0,0,0,0,0,0,0,0,0,0,0,0,0,0,0,0,0,0,0,0,0,0,0,0,0,0,0,0,0,0,0,-1.0648,-1.0648,0,-1.0674,-1.0675,-1.0675,-1.0689,-1.0689,-1.0689,-1.0689,-1.0715,-1.0716,-1.0717,0,0,0,0,0,0,0,0,0,0,0,0,0,-1.0606,-1.0607,-1.0648,-1.0648,-1.0648,-1.0674,-1.0675,-1.0675,-1.0689,-1.0689,-1.0689,-1.0689,-1.0715,-1.0716,-1.0717,0,0,0,0,0,0,0,0,0,0,0,0,0,-1.0628,-1.0607,-1.0648,-1.0658,-1.0659,-1.0674,-1.0675,-1.0675,-1.0689,-1.0689,-1.0689,-1.0689,-1.0715,-1.0716,-1.0717,-1.0723,0,0,-1.072,-1.0721,0,0,0,0,0,0,0,0,-1.0627,-1.0629,-1.0656,-1.0658,-1.0659,-1.0678,-1.067,-1.0691,-1.0689,-1.0678,-1.0689,-1.0689,-1.0703,-1.0705,-1.071,-1.0724,-1.0725,-1.072,-1.0721,-1.0721,-1.0722,0,0,0,0,0,0,0,-1.0625,-1.0628,-1.0658,-1.0657,-1.0658,-1.0661,-1.0664,-1.0674,-1.069,-1.0679,-1.068,-1.0683,-1.0704,-1.0709,-1.0711,-1.0726,-1.072,-1.0721,-1.0722,-1.0722,-1.0744,-1.0744,0,0,0,0,0,0,-1.0622,-1.0627,-1.0657,-1.0659,-1.0642,-1.0662,-1.0665,-1.0672,-1.069,-1.0692,-1.0683,-1.0683,-1.0707,-1.0709,-1.0712,-1.0719,-1.0721,-1.0722,-1.0723,-1.0744,-1.0744,-1.0744,0,0,0,0,0,0,-1.0621,-1.0625,-1.0656,-1.0643,-1.0647,-1.0662,-1.067,-1.0672,-1.0678,-1.0693,-1.0696,-1.0685,-1.0707,-1.071,-1.072,-1.072,-1.0723,-1.0724,-1.0744,-1.0744,-1.0744,-1.0733,0,0,0,0,0,0,-1.062,-1.0624,-1.0627,-1.0643,-1.0648,-1.0664,-1.067,-1.0673,-1.068,-1.0681,-1.0696,-1.0698,-1.0708,-1.0718,-1.0721,-1.0721,-1.0725,-1.0744,-1.0744,-1.0744,-1.0734,-1.0733,-1.0732,0,0,0,0,0,-1.0618,-1.0624,-1.0627,-1.0631,-1.0652,-1.0664,-1.0667,-1.0678,-1.068,-1.0682,-1.0691,-1.0698,-1.0719,-1.0719,-1.0722,-1.0723,-1.0744,-1.0744,-1.0744,-1.0734,-1.0733,-1.0732,0,0,0,0,0,0,-1.0608,-1.0626,-1.063,-1.0641,-1.0651,-1.0667,-1.0671,-1.0676,-1.0686,-1.0687,-1.0699,-1.0702,-1.071,-1.0718,-1.0717,-1.0728,-1.0732,-1.0733,-1.0724,-1.0723,-1.0722,-1.072,-1.0725,0,0,0,0,0,-1.0607,-1.0615,-1.0631,-1.0638,-1.0643,-1.0656,-1.0662,-1.0668,-1.0679,-1.0684,-1.0694,-1.0704,-1.0712,-1.0718,-1.0727,-1.0735,-1.0737,-1.0737,-1.0736,-1.0735,-1.0735,-1.0738,-1.0737,-1.0744,-1.0744,-1.0744,0,0,-1.0604,-1.0615,-1.062,-1.0636,-1.0645,-1.0653,-1.0659,-1.0668,-1.0674,-1.0685,-1.0694,-1.0702,-1.0713,-1.0721,-1.0725,-1.0728,-1.0734,-1.0735,-1.0734,-1.0735,-1.0738,-1.0737,-1.0737,-1.0744,-1.0744,-1.0744,0,0,-1.0604,-1.0614,-1.0621,-1.0629,-1.0641,-1.0649,-1.0651,-1.0665,-1.0671,-1.068,-1.0688,-1.0695,-1.071,-1.0717,-1.0723,-1.0723,-1.0729,-1.0726,-1.0722,-1.0724,-1.0724,-1.0723,-1.0722,-1.0722,-1.0726,-1.0726,-1.0726,0,-1.06,-1.0613,-1.0624,-1.0631,-1.0637,-1.0647,-1.0653,-1.066,-1.0675,-1.0679,-1.0681,-1.0699,-1.0708,-1.0717,-1.0717,-1.0722,-1.0723,-1.0724,-1.0723,-1.0723,-1.0723,-1.0722,-1.0721,-1.0726,-1.0726,-1.0726,-1.0726,0,-1.0606,-1.0615,-1.0618,-1.0632,-1.0638,-1.0645,-1.0656,-1.0661,-1.0667,-1.0674,-1.0683,-1.0693,-1.0704,-1.0706,-1.0713,-1.0716,-1.0717,-1.0721,-1.0725,-1.0721,-1.0721,-1.072,-1.0725,-1.0725,-1.0725,-1.0725,0,0,-1.0602,-1.0619,-1.0621,-1.0626,-1.0639,-1.0646,-1.0652,-1.0662,-1.0666,-1.0675,-1.068,-1.0692,-1.0695,-1.0702,-1.0708,-1.0711,-1.0708,-1.0714,-1.0715,-1.0712,-1.0711,-1.0707,-1.0707,-1.0712,-1.0712,-1.0712,-1.071,0,-1.0603,-1.0616,-1.0624,-1.0633,-1.064,-1.0648,-1.0653,-1.0662,-1.0668,-1.0675,-1.0682,-1.0689,-1.0694,-1.0698,-1.07,-1.0708,-1.0708,-1.0708,-1.0716,-1.0716,-1.0712,-1.0707,-1.0703,-1.07,-1.0709,-1.0709,-1.0709,0,-1.0607,-1.0615,-1.0624,-1.0635,-1.0638,-1.0643,-1.0652,-1.0658,-1.0667,-1.0671,-1.0677,-1.0684,-1.069,-1.0693,-1.0701,-1.0701,-1.0704,-1.0708,-1.0708,-1.0709,-1.0712,-1.0707,-1.07,-1.0699,-1.0709,-1.0709,-1.0709,0,-1.0601,-1.0615,-1.0621,-1.0626,-1.0639,-1.0642,-1.0647,-1.0656,-1.0661,-1.0668,-1.0671,-1.0679,-1.0683,-1.0689,-1.0697,-1.0699,-1.0703,-1.0708,-1.0706,-1.0706,-1.0707,-1.0707,-1.07,-1.071,-1.071,-1.071,-1.071,0,-1.0602,-1.0607,-1.0619,-1.0623,-1.0628,-1.0637,-1.0642,-1.0648,-1.0655,-1.066,-1.0668,-1.0672,-1.0683,-1.0688,-1.0694,-1.0698,-1.0701,-1.0704,-1.0705,-1.0703,-1.0702,-1.0705,-1.0705,-1.071,-1.071,-1.071,-1.071,0,-1.0597,-1.0605,-1.0613,-1.0624,-1.0627,-1.063,-1.0639,-1.0643,-1.0649,-1.0655,-1.0656,-1.0666,-1.0672,-1.0681,-1.069,-1.0694,-1.0697,-1.07,-1.0694,-1.0695,-1.0693,-1.0693,-1.0688,-1.0687,-1.0698,-1.0698,-1.0698,0,-1.0597,-1.06,-1.0611,-1.0615,-1.062,-1.0625,-1.063,-1.0638,-1.0642,-1.0652,-1.0654,-1.066,-1.0666,-1.0675,-1.0683,-1.0689,-1.0692,-1.069,-1.0693,-1.069,-1.0691,-1.069,-1.069,-1.0689,-1.0689,-1.0689,-1.0688,0,-1.0595,-1.0598,-1.0604,-1.0611,-1.0616,-1.0622,-1.0628,-1.063,-1.064,-1.0644,-1.065,-1.0654,-1.0662,-1.0668,-1.0675,-1.0681,-1.0686,-1.0687,-1.0687,-1.0684,-1.068,-1.0681,-1.0691,-1.0687,-1.0687,-1.0688,-1.0688,-1.0688,-1.0591,-1.0594,-1.0602,-1.0608,-1.0613,-1.0618,-1.0621,-1.0627,-1.0633,-1.064,-1.0644,-1.065,-1.0657,-1.0667,-1.0671,-1.0675,-1.0677,-1.0677,-1.0677,-1.0677,-1.0676,-1.068,-1.0676,-1.0676,-1.0676,-1.0676,-1.0677,0,-1.0589,-1.0594,-1.0599,-1.0607,-1.0611,-1.0615,-1.0621,-1.0624,-1.0629,-1.0635,-1.064,-1.0646,-1.0651,-1.0658,-1.0664,-1.0665,-1.0668,-1.0667,-1.0666,-1.0667,-1.0674,-1.0673,-1.0664,-1.0664,-1.0664,-1.0664,-1.0664,-1.0664,-1.0588,-1.0593,-1.0597,-1.0603,-1.0608,-1.0613,-1.0616,-1.062,-1.0625,-1.0631,-1.0635,-1.064,-1.0646,-1.0651,-1.0656,-1.0658,-1.0659,-1.0657,-1.066,-1.0666,-1.0667,-1.0668,-1.0667,-1.0657,-1.0657,-1.0652,-1.0652,-1.0652]}]]